sat.trackr.live / text

‹ back to catalog

NUSAT-37 (JOAN CLARKE)

NORAD 56203 · 2023-054AB

PAYLOAD ACTIVE UNKNOWN

§ Identity

Operator
Country
ARGN
Launch date
2023-04-15
Launch site
AFWTR
Launch vehicle
Mass (kg)
RCS (m²)

External: N2YO · Heavens-Above · Gunter

§ Orbital elements

Epoch: 2026-09-21T23:52:39.766080Z

Period
91.92 min
Inclination
97.2507°
Eccentricity
0.0001182
Mean motion
15.66500803 rev/d
Perigee alt
368.1 km
Apogee alt
369.7 km
Semi-major
6,747.1 km
B*
5.4166e-4
RAAN
174.4437°
Arg perigee
233.4273°
Mean anomaly
126.6879°
Rev number
19,375

§ Raw data

NUSAT-37 (JOAN CLARKE)1 56203U 23054AB  26264.99490470  .00056543  00000+0  54166-3 0  99992 56203  97.2507 174.4437 0001182 233.4273 126.6879 15.66500803193752

JSON: /api/v1/satellites/56203 · /tle

For live sub-satellite position, see the globe view (requires WebGL).

§ Visibility from observer

Set your observer location to see the next 7 days of passes ≥ 10°. The values pass through the URL so the page stays shareable.

No JS? Fill the form by hand. The geolocation button needs JavaScript.